Regional Weather Roundup
Issued by NWS

Home | Current Version | Previous Version | Graphics & Text | Print | Product List | Glossary On
Versions: 1 2 3 4 5 6 7 8 9 10 11 12 13 14 15 16 17 18 19 20 21 22 23 24 25 26 27 28 29 30 31
000
ASUS45 KGTF 181510
RWRMT
MONTANA HOURLY WEATHER ROUNDUP
NATIONAL WEATHER SERVICE GREAT FALLS MT
900 AM MDT SAT APR 18 2015

NOTE: "FAIR" INDICATES FEW OR NO CLOUDS BELOW 12000 FEET WITH NO
SIGNIFICANT WEATHER AND/OR OBSTRUCTIONS TO VISIBILITY.

MTZ001>007-043-181600-
WEST OF THE DIVIDE

CITY           SKY/WX    TMP DP  RH WIND       PRES   REMARKS
KALISPELL      SUNNY     50  34  54 N12       30.16R
MISSOULA       SUNNY     45  33  63 SE5       30.18R
BUTTE          SUNNY     36  28  73 CALM      30.17S
DEER LODGE       N/A     46  34  61 CALM      30.20S
EUREKA           N/A     46  36  66 CALM      30.22S
HAMILTON         N/A     46  32  57 S7        30.16F
LIBBY            N/A     46  34  61 CALM      30.21S
$$

MTZ008-052>055-181600-
SOUTHWEST MONTANA

CITY           SKY/WX    TMP DP  RH WIND       PRES   REMARKS
BOZEMAN        SUNNY     42  33  70 N3        30.13R
DILLON         SUNNY     44  28  53 SW6       30.14S
$$

MTZ009-010-012-014-046-048-049-054-181600-
EAST SLOPES AND CENTRAL MONTANA

CITY           SKY/WX    TMP DP  RH WIND       PRES   REMARKS
CUT BANK       LGT SNOW  33  32  96 N23       30.24R FOG     WCI  21
GREAT FALLS    CLOUDY    45  33  63 N10       30.18R
MALMSTROM AFB  LGT RAIN  45  34  66 N12G17    30.18R
HELENA         SUNNY     54  30  40 NW8       30.12R
$$

MTZ011-013-016-021-045-047-050-051-181600-
NORTH CENTRAL MONTANA

CITY           SKY/WX    TMP DP  RH WIND       PRES   REMARKS
HAVRE          CLOUDY    44  35  70 NW10      30.15R
LEWISTOWN      SUNNY     47  33  58 NW12G18   30.09R
FORT BENTON      N/A     46  32  57 N17G29    30.16R
$$

MTZ017>020-022>042-056>058-061-062-181600-
EASTERN PLAINS

CITY           SKY/WX    TMP DP  RH WIND       PRES   REMARKS
BAKER          MOSUNNY   58  42  55 SW7       29.99S
BILLINGS       MOSUNNY   49  32  52 SW5       30.01R
GLASGOW        MOSUNNY   52  32  46 NW15      29.92S
JORDAN           N/A     55  33  43 NW13      29.94F
LIVINGSTON     SUNNY     48  28  46 W10       30.09S
MILES CITY     SUNNY     53  40  61 S10       29.96S
SIDNEY         MOSUNNY   52  30  43 S12       29.95F
WOLF POINT     SUNNY     53  34  48 CALM      29.92F
BIG TIMBER       N/A     52  27  37 SW16G22   30.07R
FORSYTH          N/A     48  37  66 W5        29.96F
PLENTYWOOD       N/A     54  30  40 SE10      29.91F
POPLAR           N/A     54  34  47 SW5       29.92F
$$

REGIONAL REPORTS...DAKOTAS

CITY           SKY/WX    TMP DP  RH WIND       PRES   REMARKS
WILLISTON      SUNNY     53  30  41 S8        29.95F
MINOT          SUNNY     50  29  44 SE7       30.00F
DICKINSON      SUNNY     56  35  45 SW5       29.97F
BEACH          FAIR      54  41  62 SW9       29.98F
CROSBY         FAIR      55  28  35 S16G23    29.93F
WATFORD CITY   FAIR      57  28  33 SW9       29.94F
BISMARCK       CLOUDY    47  31  53 E6        30.04S
GRAND FORKS    MOSUNNY   51  32  48 SE10      30.10F
FARGO          SUNNY     58  30  34 SE14      30.07F
BUFFALO SD       N/A     48  40  73 NE3       29.93F
RAPID CITY     CLOUDY    51  43  74 NE6       29.99S
$$

REGIONAL REPORTS...WYOMING/IDAHO/WASHINGTON

CITY           SKY/WX    TMP DP  RH WIND       PRES   REMARKS
GILLETTE       PTSUNNY   44  42  93 S3        29.99F
SHERIDAN       SUNNY     47  36  65 N3        29.99S
BUFFALO WY     SUNNY     49  31  49 MISG      30.00S
CODY           SUNNY     48  30  49 CALM      30.04S
YELLOWSTONE LA   N/A     31  21  66 CALM      30.15S
IDAHO FALLS    SUNNY     42  30  62 NE6       30.09S
SALMON         SUNNY     39  28  65 CALM      30.18F
BOISE          SUNNY     50  35  56 NW3       30.12R
SPOKANE        MOSUNNY   53  25  33 N17G23    30.24R
$$

REGIONAL REPORTS...ALBERTA

CITY           SKY/WX    TMP DP  RH WIND       PRES   REMARKS
EDMONTON       SUNNY     39  30  70 W21G29    30.18R WCI  29
CALGARY        CLOUDY    39  23  52 N18       30.26R WCI  30
LETHBRIDGE     PTSUNNY   36  36 100 SW6       30.28S WCI  31
MEDICINE HAT   CLOUDY    45  27  49 NW17G25   30.19R
$$

REGIONAL REPORTS...SASKATCHEWAN

CITY           SKY/WX    TMP DP  RH WIND       PRES   REMARKS
SWIFT CURRENT  PTSUNNY   41  34  75 NW21G29   30.04R
REGINA         PTSUNNY   48  36  61 NW16      29.91F
SASKATOON      PTSUNNY   43  36  75 NW26G36   29.95S
$$



USA.gov is the U.S. government's official web portal to all federal, state and local government web resources and services.